Regional Weather Roundup
Issued by NWS Cleveland, OH

Home | Current Version | Previous Version | Text Only | Print | Product List | Glossary On
Versions: 1 2 3 4 5 6 7 8 9 10 11 12 13 14 15 16 17 18 19 20 21 22 23 24 25 26 27 28 29 30 31 32 33 34 35 36 37 38 39 40 41 42 43 44 45 46 47 48 49 50
000
ASUS41 KCLE 270610
RWRCLE
OHIO REGIONAL WEATHER ROUNDUP
NATIONAL WEATHER SERVICE CLEVELAND, OH
100 AM EST SAT DEC 27 2014

NOTE: "FAIR" INDICATES FEW OR NO CLOUDS BELOW 12,000 FEET WITH NO
SIGNIFICANT WEATHER AND/OR OBSTRUCTIONS TO VISIBILITY.

OHZ001>008-015>018-024>027-034-035-043-044-270700-
   NORTHWEST OHIO

CITY           SKY/WX    TMP DP  RH WIND       PRES   REMARKS
DEFIANCE       CLOUDY    45  38  76 SW8       30.12F
FINDLAY        CLOUDY    44  36  73 S13       30.13F
TOLEDO EXPRESS CLOUDY    43  36  76 SW7       30.12F
TOLEDO EXEC    CLOUDY    43  36  76 SW8       30.13F
LIMA           CLOUDY    46  36  68 S8        30.14F
$$

OHZ009>014-019>023-028>033-038-089-270700-
   NORTHEAST OHIO

CITY           SKY/WX    TMP DP  RH WIND       PRES   REMARKS
CLE-HOPKINS    PTCLDY    43  33  68 SW10      30.18S
CLE-LAKEFRONT  PTCLDY    45  33  63 S13       30.15S
CUY CO. ARPT   NOT AVBL
LORAIN-ELYRIA  PTCLDY    39  34  82 S7        30.15F
ASHTABULA      PTCLDY    39  32  76 S6        30.16S
AKRON-CANTON   MOCLDY    41  32  70 SW7       30.16F
WOOSTER        MOCLDY    39  33  79 SW6       30.16F
MANSFIELD      PTCLDY    37  33  85 S7        30.15F
YOUNGSTOWN     PTCLDY    40  32  73 SW7       30.16F
$$

OHZ042-051>053-060>062-070>072-077>081-270700-
  SOUTHWEST OHIO

CITY           SKY/WX    TMP DP  RH WIND       PRES   REMARKS
CINC-COVINGTON MOCLDY    45  31  58 SW6       30.18R
CINC-LUNKEN    PTCLDY    37  35  92 CALM      30.20S
HAMILTON       MOCLDY    36  32  85 CALM      30.19S
DAYTON         MOCLDY    45  34  65 S7        30.18S
WRIGHT-PAT AFB NOT AVBL
DAYTON GENERAL MOCLDY    43  33  68 SW3       30.17S
WILMINGTON     MOCLDY    39  32  76 S5        30.17F
$$

OHZ036-037-039>041-045>050-054>059-063>069-073>076-082>088-270700-
  CENTRAL AND SOUTHEAST OHIO

CITY           SKY/WX    TMP DP  RH WIND       PRES   REMARKS
COLUMBUS       MOCLDY    38  32  79 CALM      30.18F
OSU AIRPORT    MOCLDY    40  34  79 S3        30.18F
BOLTON FIELD   MOCLDY    38  33  82 S3        30.19S
RICKENBACK AFB MOCLDY    39  33  77 S5        30.19S
NEWARK         MOCLDY    34  31  88 CALM      30.18F
MARION         MOCLDY    42  34  73 S9        30.17F
LANCASTER      MOCLDY    36  32  85 CALM      30.20S
ZANESVILLE     MOCLDY    36  30  79 CALM      30.20S
NEW PHILLY     MOCLDY    36  31  82 SE6       30.19F
$$



USA.gov is the U.S. government's official web portal to all federal, state and local government web resources and services.